This is the latest recevied weather packets stored in our database for station/object KA1JKB. If no packets are shown the sender has not sent any weather packets the latest 10 day(s).
| Time | Temp. | Humidity | Pressure | Rain* | Wind** | Luminosity | Snow |
|---|---|---|---|---|---|---|---|
| 1777670297 | 8.89° C | 64% | 1011.8 hPa | 0 mm | - | 277 W/m² | - |
| 1777669994 | 10° C | 62% | 1011.7 hPa | 0 mm | - | 275 W/m² | - |
| 1777669691 | 8.89° C | 66% | 1011.8 hPa | 0 mm | - | 493 W/m² | - |
| 1777669388 | 8.89° C | 66% | 1011.8 hPa | 0 mm | - | 279 W/m² | - |
| 1777669084 | 8.33° C | 67% | 1011.6 hPa | 0 mm | - | 237 W/m² | - |
| 1777668781 | 7.78° C | 67% | 1011.9 hPa | 0 mm | - | 115 W/m² | - |
| 1777668477 | 8.33° C | 65% | 1011.8 hPa | 0 mm | - | 81 W/m² | - |
| 1777668174 | 8.33° C | 65% | 1011.7 hPa | 0 mm | - | 91 W/m² | - |
| 1777667871 | 8.89° C | 62% | 1011.6 hPa | 0 mm | - | 122 W/m² | - |
| 1777667569 | 8.89° C | 63% | 1011.5 hPa | 0 mm | - | 167 W/m² | - |
| 1777667265 | 9.44° C | 65% | 1011.6 hPa | 0 mm | - | 233 W/m² | - |
| 1777666962 | 8.89° C | 62% | 1011.5 hPa | 0 mm | - | 279 W/m² | - |
| 1777666659 | 8.89° C | 63% | 1011.7 hPa | 0 mm | - | 225 W/m² | - |
| 1777666356 | 8.33° C | 60% | 1011.8 hPa | 0 mm | - | 180 W/m² | - |
| 1777666052 | 8.89° C | 63% | 1011.6 hPa | 0 mm | - | 105 W/m² | - |
| 1777665750 | 8.89° C | 61% | 1011.5 hPa | 0 mm | - | 91 W/m² | - |
| 1777665447 | 9.44° C | 60% | 1011.6 hPa | 0 mm | - | 146 W/m² | - |
| 1777665143 | 9.44° C | 59% | 1011.6 hPa | 0 mm | - | 200 W/m² | - |
| 1777664839 | 10° C | 58% | 1011.5 hPa | 0 mm | - | 271 W/m² | - |
| 1777664535 | 10° C | 56% | 1011.5 hPa | 0 mm | - | 334 W/m² | - |
| 1777664231 | 9.44° C | 59% | 1011.5 hPa | 0 mm | - | 314 W/m² | - |
| 1777663930 | 9.44° C | 61% | 1011.5 hPa | 0 mm | - | 316 W/m² | - |
| 1777663627 | 10° C | 62% | 1011.4 hPa | 0 mm | - | 387 W/m² | - |
| 1777663324 | 8.89° C | 61% | 1011.5 hPa | 0 mm | - | 286 W/m² | - |
| 1777663021 | 8.89° C | 61% | 1011.6 hPa | 0 mm | - | 185 W/m² | - |
* Rain latest hour (hover to see other rain measurements)
** Current wind speed in m/s (hover to see current wind gust speed)